• Em Portugal
  • Lista de países
  • Para 7 dias
  • Temperatura da água
  • Mapas de satélite
  • Mapa do tempo
  • Widgets de tempo
  • user-avatar
    Iniciar Sessão

    Previsão horária em Pegu

    Hoje, 16 Dezembro, Sábado

    Tempo Temperatura Precipitação Vento Pressão Humidade
    00:00 +19°C° 0 mm 2 m/s 755 mmHg 77%
    01:00 +19°C° 0 mm 2 m/s 754 mmHg 79%
    02:00 +19°C° 0 mm 2 m/s 754 mmHg 80%
    03:00 +18°C° 0 mm 2 m/s 754 mmHg 81%
    04:00 +18°C° 0 mm 2 m/s 754 mmHg 83%
    05:00 +18°C° 0 mm 2 m/s 755 mmHg 84%
    06:00 +17°C° 0 mm 2 m/s 755 mmHg 86%
    07:00 +19°C° 0 mm 2 m/s 755 mmHg 79%
    08:00 +21°C° 0 mm 2 m/s 756 mmHg 72%
    09:00 +23°C° 0 mm 2 m/s 756 mmHg 66%
    10:00 +25°C° 0 mm 2 m/s 756 mmHg 60%
    11:00 +26°C° 0 mm 2 m/s 755 mmHg 54%
    12:00 +28°C° 0 mm 2 m/s 755 mmHg 49%
    13:00 +28°C° 0 mm 2 m/s 755 mmHg 48%
    14:00 +29°C° 0 mm 2 m/s 754 mmHg 46%
    15:00 +29°C° 0 mm 2 m/s 754 mmHg 45%
    16:00 +27°C° 0 mm 2 m/s 754 mmHg 50%
    17:00 +26°C° 0 mm 2 m/s 754 mmHg 55%
    18:00 +24°C° 0 mm 1 m/s 755 mmHg 60%
    19:00 +23°C° 0 mm 1 m/s 755 mmHg 62%
    20:00 +23°C° 0 mm 1 m/s 755 mmHg 64%
    21:00 +22°C° 0 mm 1 m/s 756 mmHg 65%
    22:00 +22°C° 0 mm 1 m/s 756 mmHg 67%
    23:00 +21°C° 0 mm 1 m/s 756 mmHg 68%

    Amanhã, 17 Dezembro, Domingo

    Tempo Temperatura Precipitação Vento Pressão Humidade
    00:00 +21°C° 0 mm 1 m/s 756 mmHg 69%
    01:00 +21°C° 0 mm 1 m/s 756 mmHg 70%
    02:00 +19°C° 0 mm 2 m/s 756 mmHg 71%
    03:00 +19°C° 0 mm 2 m/s 755 mmHg 72%
    04:00 +18°C° 0 mm 2 m/s 756 mmHg 73%
    05:00 +18°C° 0 mm 2 m/s 756 mmHg 74%
    06:00 +18°C° 0 mm 2 m/s 756 mmHg 75%
    07:00 +20°C° 0 mm 2 m/s 757 mmHg 70%
    08:00 +21°C° 0 mm 2 m/s 757 mmHg 65%
    09:00 +24°C° 0 mm 2 m/s 758 mmHg 60%
    10:00 +25°C° 0 mm 2 m/s 757 mmHg 56%
    11:00 +27°C° 0 mm 2 m/s 757 mmHg 52%
    12:00 +28°C° 0 mm 2 m/s 756 mmHg 48%
    13:00 +29°C° 0 mm 2 m/s 755 mmHg 48%
    14:00 +29°C° 0 mm 2 m/s 755 mmHg 47%
    15:00 +29°C° 0 mm 2 m/s 754 mmHg 47%
    16:00 +28°C° 0 mm 1 m/s 754 mmHg 52%
    17:00 +26°C° 0 mm 1 m/s 755 mmHg 57%
    18:00 +25°C° 0 mm 1 m/s 755 mmHg 61%
    19:00 +24°C° 0 mm 1 m/s 755 mmHg 63%
    20:00 +24°C° 0 mm 1 m/s 756 mmHg 65%
    21:00 +23°C° 0 mm 1 m/s 756 mmHg 67%
    22:00 +23°C° 0 mm 1 m/s 756 mmHg 68%
    23:00 +22°C° 0 mm 1 m/s 756 mmHg 70%

    Depois de amanhã, 18 Dezembro, Segunda-feira

    Tempo Temperatura Precipitação Vento Pressão Humidade
    00:00 +22°C° 0 mm 1 m/s 756 mmHg 71%
    01:00 +21°C° 0 mm 1 m/s 755 mmHg 73%
    02:00 +21°C° 0 mm 1 m/s 755 mmHg 75%
    03:00 +20°C° 0 mm 2 m/s 755 mmHg 76%
    04:00 +19°C° 0 mm 2 m/s 755 mmHg 78%
    05:00 +19°C° 0 mm 2 m/s 755 mmHg 79%
    06:00 +19°C° 0 mm 2 m/s 756 mmHg 80%
    07:00 +20°C° 0 mm 2 m/s 756 mmHg 74%
    08:00 +23°C° 0 mm 2 m/s 757 mmHg 69%
    09:00 +25°C° 0 mm 2 m/s 758 mmHg 63%
    10:00 +26°C° 0 mm 2 m/s 757 mmHg 59%
    11:00 +27°C° 0 mm 2 m/s 756 mmHg 54%
    12:00 +29°C° 0 mm 3 m/s 756 mmHg 49%
    13:00 +29°C° 0 mm 3 m/s 755 mmHg 49%
    14:00 +29°C° 0 mm 3 m/s 754 mmHg 48%
    15:00 +29°C° 0 mm 3 m/s 754 mmHg 47%
    16:00 +28°C° 0 mm 2 m/s 754 mmHg 52%
    17:00 +26°C° 0 mm 2 m/s 754 mmHg 57%
    18:00 +24°C° 0 mm 2 m/s 755 mmHg 63%
    19:00 +24°C° 0 mm 2 m/s 755 mmHg 65%
    20:00 +23°C° 0 mm 2 m/s 756 mmHg 67%
    21:00 +23°C° 0 mm 2 m/s 756 mmHg 69%
    22:00 +21°C° 0 mm 2 m/s 756 mmHg 71%
    23:00 +21°C° 0 mm 2 m/s 756 mmHg 73%

    19 Dezembro, Terça-feira

    Tempo Temperatura Precipitação Vento Pressão Humidade
    00:00 +20°C° 0 mm 2 m/s 755 mmHg 74%
    01:00 +20°C° 0 mm 2 m/s 755 mmHg 75%
    02:00 +19°C° 0 mm 2 m/s 755 mmHg 76%
    03:00 +19°C° 0 mm 2 m/s 755 mmHg 77%
    04:00 +19°C° 0 mm 2 m/s 755 mmHg 78%
    05:00 +18°C° 0 mm 2 m/s 755 mmHg 78%
    06:00 +18°C° 0 mm 2 m/s 756 mmHg 79%
    07:00 +20°C° 0 mm 2 m/s 756 mmHg 73%
    08:00 +21°C° 0 mm 2 m/s 757 mmHg 67%
    09:00 +24°C° 0 mm 2 m/s 758 mmHg 61%
    10:00 +26°C° 0 mm 2 m/s 757 mmHg 57%
    11:00 +27°C° 0 mm 2 m/s 756 mmHg 53%
    12:00 +29°C° 0 mm 2 m/s 756 mmHg 48%
    13:00 +29°C° 0 mm 2 m/s 755 mmHg 48%
    14:00 +29°C° 0 mm 2 m/s 755 mmHg 47%
    15:00 +29°C° 0 mm 2 m/s 754 mmHg 47%
    16:00 +28°C° 0 mm 2 m/s 754 mmHg 52%
    17:00 +26°C° 0 mm 2 m/s 755 mmHg 56%
    18:00 +24°C° 0 mm 2 m/s 755 mmHg 61%
    19:00 +24°C° 0 mm 2 m/s 756 mmHg 62%
    20:00 +23°C° 0 mm 2 m/s 756 mmHg 64%
    21:00 +23°C° 0 mm 2 m/s 756 mmHg 66%
    22:00 +21°C° 0 mm 2 m/s 756 mmHg 67%
    23:00 +21°C° 0 mm 2 m/s 756 mmHg 68%

    20 Dezembro, Quarta-feira

    Tempo Temperatura Precipitação Vento Pressão Humidade
    00:00 +20°C° 0 mm 2 m/s 756 mmHg 69%
    01:00 +20°C° 0 mm 2 m/s 756 mmHg 70%
    02:00 +20°C° 0 mm 2 m/s 756 mmHg 70%
    03:00 +19°C° 0 mm 2 m/s 756 mmHg 71%
    04:00 +19°C° 0 mm 2 m/s 756 mmHg 71%
    05:00 +19°C° 0 mm 2 m/s 757 mmHg 71%
    06:00 +18°C° 0 mm 2 m/s 757 mmHg 72%
    07:00 +20°C° 0 mm 2 m/s 758 mmHg 68%
    08:00 +23°C° 0 mm 2 m/s 758 mmHg 63%
    09:00 +24°C° 0 mm 3 m/s 759 mmHg 59%
    10:00 +26°C° 0 mm 3 m/s 758 mmHg 55%
    11:00 +27°C° 0 mm 3 m/s 757 mmHg 52%
    12:00 +29°C° 0 mm 3 m/s 756 mmHg 48%
    13:00 +29°C° 0 mm 3 m/s 756 mmHg 47%
    14:00 +29°C° 0 mm 3 m/s 755 mmHg 47%
    15:00 +30°C° 0 mm 3 m/s 755 mmHg 47%
    16:00 +28°C° 0 mm 3 m/s 755 mmHg 52%
    17:00 +26°C° 0 mm 2 m/s 755 mmHg 58%
    18:00 +24°C° 0 mm 2 m/s 756 mmHg 63%
    19:00 +24°C° 0 mm 2 m/s 756 mmHg 65%
    20:00 +23°C° 0 mm 2 m/s 756 mmHg 67%
    21:00 +23°C° 0 mm 2 m/s 757 mmHg 69%
    22:00 +21°C° 0 mm 2 m/s 757 mmHg 71%
    23:00 +21°C° 0 mm 2 m/s 757 mmHg 72%

    21 Dezembro, Quinta-feira

    Tempo Temperatura Precipitação Vento Pressão Humidade
    00:00 +20°C° 0 mm 2 m/s 756 mmHg 74%
    01:00 +20°C° 0 mm 2 m/s 756 mmHg 75%
    02:00 +19°C° 0 mm 2 m/s 756 mmHg 77%
    03:00 +19°C° 0 mm 2 m/s 756 mmHg 78%
    04:00 +19°C° 0 mm 2 m/s 756 mmHg 79%
    05:00 +18°C° 0 mm 2 m/s 756 mmHg 80%
    06:00 +18°C° 0 mm 2 m/s 756 mmHg 81%
    07:00 +20°C° 0 mm 2 m/s 757 mmHg 74%
    08:00 +21°C° 0 mm 2 m/s 757 mmHg 68%
    09:00 +24°C° 0 mm 2 m/s 758 mmHg 62%
    10:00 +25°C° 0 mm 2 m/s 757 mmHg 57%
    11:00 +27°C° 0 mm 2 m/s 756 mmHg 52%
    12:00 +28°C° 0 mm 1 m/s 756 mmHg 47%
    13:00 +29°C° 0 mm 1 m/s 755 mmHg 45%
    14:00 +29°C° 0 mm 1 m/s 754 mmHg 43%
    15:00 +29°C° 0 mm 1 m/s 753 mmHg 42%
    16:00 +28°C° 0 mm 1 m/s 754 mmHg 46%
    17:00 +26°C° 0 mm 1 m/s 754 mmHg 51%
    18:00 +24°C° 0 mm 1 m/s 754 mmHg 56%
    19:00 +24°C° 0 mm 1 m/s 754 mmHg 58%
    20:00 +23°C° 0 mm 1 m/s 754 mmHg 60%
    21:00 +23°C° 0 mm 1 m/s 755 mmHg 62%
    22:00 +22°C° 0 mm 1 m/s 754 mmHg 63%
    23:00 +22°C° 0 mm 1 m/s 754 mmHg 65%
    Mostrar mais

    XHprof extension not loaded